www.pogodaiklimat.ru

Погода и климат >> Архив погоды >> Россия >> Крым >> Симферополь


АРХИВ ПОГОДЫ в Симферополе

Время (UTC), дата Ветер
(напр.,м/с)
 
Видим.   Явления Облачность Т
(С)
Тd
(С)
f
(%)
Тe
(С)
Тes
(С)
Комфортность P
(гПа)
Po
(гПа)
Тmin
(С)
Tmax
(С)
R
(мм)
R24
(мм)
S
(см)
09 14.01 Ю 7
{10}
10 км 10/10 1230 м
[Cb calv]
+3.6 +1.6 87 -2 -2 по сезону 1001.0 979.0
12 14.01 ЮЗ 7-12
{12}
10 км слаб. ливневой дождь 10/10 840 м
[Cb calv]
+3.5 +1.5 87 -3 -3 по сезону 999.5 977.5
15 14.01 Ю 6-10
{12}
10 км в посл. час ливневой дождь 10/10 1200 м
[Cb calv]
+3.1 +1.6 90 -3 -3 по сезону 999.4 977.4 1
18 14.01 Ю 6
{10}
10 км {ливн. осадки} 10/10 1440 м
[Sc]
+3.5 +0.5 81 -2 -2 по сезону 999.9 977.9 +4.6 0.4
21 14.01 Ю 6 10 км 10/10 1320 м
[Sc]
+3.7 +1.3 84 -2 -2 по сезону 1000.0 978.0
00 15.01 Ю 6 10 км 10/5 960 м
[Sc Ci fib]
+4.4 +2.4 87 -1 -1 по сезону 999.8 977.9
03 15.01 Ю 6 10 км 8/4 1080 м
[Sc Ac trans]
+4.8 +2.5 85 -0 -0 тепло 999.5 977.6 +2.2
06 15.01 Ю 6
{10}
10 км слаб. ливневой дождь 10/10 720 м
[Cb calv]
+4.3 +3.7 96 -1 -1 по сезону 1001.0 979.0 +2.2 9
09 15.01 ЮЗ 3
{11}
10 км слаб. ливневой дождь 10/10 630 м
[Cb calv]
+4.5 +3.9 96 +1 +1 тепло 1001.7 979.7
12 15.01 Ю 2 10 км слаб. дождь 10/3 720 м
[Frnb As op]
+4.3 +3.9 97 +1 +2 по сезону 1000.9 978.9
15 15.01 С 6 3600 м слаб. дождь 10/8 570 м
[Frnb As op]
+1.0 +0.7 98 -6 -6 по сезону 1001.2 979.0 25
18 15.01 С 8-11
{10}
1700 м слаб. снег {дождь} 10/8 600 м
[Frnb As op]
-1.2 -1.5 98 -9 -9 прохладно 1002.8 980.3 +5.0 18
21 15.01 С 4
{11}
2200 м слаб. снег {туман} 10/8 840 м
[Frnb As op]
-2.0 -2.6 96 -8 -8 прохладно 1004.3 981.7
00 16.01 С 3 10 км {снег, туман} 10/3 300 м
[St Ac und]
-3.1 -4.7 89 -8 -8 по сезону 1006.2 983.5
03 16.01 Ю 3 10 км 6/0
[Ac trans]
-5.3 -5.8 96 -11 -11 холодно 1007.4 984.5 -5.6 4
06 16.01 Ю 4 10 км 8/0
[Ci fib]
-5.7 -7.4 88 -12 -12 холодно 1010.5 987.5 -8.0 2 2
09 16.01 Ю 6 10 км 3/3 1000 м
[Sc]
-0.3 -4.7 72 -7 -6 прохладно 1009.5 986.9
12 16.01 ЮЗ 5
{10}
10 км 9/9 1380 м
[Cb calv]
+1.7 -2.6 73 -4 -4 по сезону 1008.1 985.7
15 16.01 Ю 6 2300 м слаб. снег 10/4 700 м
[Frnb As op]
+0.3 -0.1 97 -6 -6 по сезону 1007.9 985.4 0.5
18 16.01 Ю 4 900 м ливневой снег ?/? +0.2 -0.4 96 -5 -5 по сезону 1007.4 984.9 +2.3 4
21 16.01 Ю 2 10 км {ливн. осадки} 10/10 1380 м
[Sc]
+0.4 -0.2 96 -3 -3 по сезону 1008.7 986.2
00 17.01 СЗ 4 1900 м туман {ливн. осадки} 10/10 120 м
[St]
-0.4 -0.5 99 -6 -6 по сезону 1011.4 988.8
03 17.01 З 2 10 км 10/10 480 м
[St]
-0.9 -1.3 97 -5 -5 по сезону 1013.9 991.2 -0.9 6
06 17.01 З 1 1200 м в посл. час туман 10/10 90 м
[St]
-0.5 -0.6 99 -3 -3 по сезону 1016.6 993.9 -1.1 2 7
09 17.01 З 1 10 км 10/10 330 м
[St]
0.0 -2.2 85 -2 -2 по сезону 1018.9 996.2
12 17.01 ЮЗ 2 10 км 10/10 270 м
[St]
0.0 -1.4 90 -4 -4 по сезону 1019.3 996.6
15 17.01 ЮВ 2 10 км 3/3 300 м
[St]
-2.3 -3.3 93 -6 -6 по сезону 1019.8 996.9
18 17.01 Ю 4 10 км ясно -3.5 -4.2 95 -10 -10 прохладно 1021.0 997.9 +0.4
21 17.01 Ю 4 10 км 3/0
[Ci fib]
-2.1 -3.8 88 -8 -8 прохладно 1020.7 997.7
00 18.01 Ю 4 10 км ясно -0.8 -4.8 74 -6 -6 по сезону 1019.6 996.8
03 18.01 Ю 6 10 км ясно +1.0 -1.7 82 -5 -5 по сезону 1018.2 995.6 -5.3
06 18.01 Ю 7 10 км 1/0
[Ac trans]
+2.4 -0.2 83 -4 -4 по сезону 1018.1 995.6 -3.9 5
09 18.01 Ю 5 10 км 1/0
[Ac trans]
+5.6 +2.6 81 +1 +3 тепло 1017.9 995.7
12 18.01 Ю 6
{10}
10 км 8/8 660 м
[Sc]
+7.4 +4.4 81 +3 +3 тепло 1016.6 994.5
15 18.01 Ю 6
{13}
10 км 3/3 300 м
[St]
+5.5 +3.7 88 +1 +1 по сезону 1017.3 995.1
18 18.01 Ю 3 10 км 3/0
[Ci fib]
+2.7 +1.7 93 -2 -2 по сезону 1017.6 995.1 +7.7
21 18.01 Ю 5 10 км 6/6 1050 м
[Sc]
+6.1 +3.9 86 +2 +2 тепло 1016.9 994.7
00 19.01 Ю 5 10 км 10/8 1350 м
[Sc Ci fib]
+4.9 +1.9 81 0 0 тепло 1016.4 994.1
03 19.01 Ю 5 10 км 10/10 1200 м
[Sc]
+5.3 +1.8 78 +1 +1 тепло 1015.7 993.5 +2.5
06 19.01 ЮЗ 4 10 км 10/10 630 м
[Sc]
+6.5 +5.5 93 +3 +3 тепло 1016.2 994.1 +2.6
09 19.01 З 5 10 км 10/10 540 м
[Sc]
+6.7 +4.4 85 +3 +3 тепло 1018.0 995.8
12 19.01 С 4 5000 м дымка 10/10 150 м
[St]
+2.9 +2.2 95 -2 -2 по сезону 1020.0 997.5
15 19.01 СВ 4 6000 м дымка 10/10 270 м
[St]
+2.1 +1.1 93 -3 -3 по сезону 1022.1 999.5
18 19.01 С 5 10 км 10/10 240 м
[St]
+1.0 0.0 93 -5 -5 по сезону 1023.7 1000.9 +7.8
21 19.01 СВ 5 10 км 10/10 420 м
[St]
-1.1 -4.1 80 -7 -7 по сезону 1025.2 1002.2
00 20.01 В 6 10 км 9/9 270 м
[St]
-2.1 -3.5 90 -9 -9 прохладно 1025.1 1002.0
03 20.01 В 7
{10}
10 км 8/4 180 м
[St Ac trans]
-1.7 -2.4 95 -9 -9 прохладно 1024.3 1001.3 -2.1
06 20.01 В 5
{10}
10 км 4/0
[Ac trans]
-2.1 -2.8 95 -9 -9 прохладно 1023.9 1000.9 -2.4
09 20.01 В 3 10 км 8/0
[Ac trans Cc]
+4.1 +0.1 75 +1 +3 тепло 1023.4 1000.9
12 20.01 СВ 3 10 км 9/0
[Ac trans]
+6.1 -0.4 63 +3 +4 тепло 1021.2 998.9
15 20.01 В 4 10 км 10/10 1500 м
[Sc]
+4.9 -1.1 65 +1 +1 по сезону 1020.4 998.0
18 20.01 В 3 10 км 10/10 1500 м
[Sc]
+4.0 +0.2 76 0 0 тепло 1019.5 997.1 +6.7
21 20.01 ЮЗ 1 10 км 10/5 1500 м
[Sc Ac und]
+3.5 +0.7 82 +2 +2 тепло 1018.4 996.0
00 21.01 ЮВ 5 10 км 10/0
[Ac und]
+5.1 +1.0 75 +1 +1 тепло 1015.8 993.6
03 21.01 Ю 5 10 км 10/0
[Ac und]
+7.7 +2.0 67 +4 +4 тепло 1013.8 991.8 +3.3
06 21.01 Ю 3 10 км {ливн. осадки, дождь} 10/8 1410 м
[Sc Ac und]
+6.5 +2.6 76 +4 +4 тепло 1013.7 991.6 +3.3 0.3

 

Местоположение метеостанции Симферополь (Крым, Россия): широта 45.03 долгота 33.97 высота над уровнем моря 181 м.

В архиве по умолчанию представлена погода в Симферополе за последнюю неделю. Архивные данные за месяц целиком и за предыдущие месяцы, начиная с января 2011 года, Вы можете получить, выбрав интересующий диапазон дат из раскрывающегося списка и нажав кнопку "Ввод!".


*Определитесь, кто Вы:
робот инопланетянин человек

Внимание! Время в таблицах - всемирное. Для получения местного времени необходимо прибавить поправку, которая равна 3 ч.

Смотрите также архив погоды в соседних городах и на ближайших метеорологических станциях:

Погода в Симферополе город (Крым, Россия) (15 км)
Погода в Почтовом (Крым, Россия) (22 км)
Погода на Ангарском Перевале (Крым, Россия) (43 км)
Погода в Белогорске (Крым, Россия) (50 км)
Погода в Евпатории (Крым, Россия) (50 км)
Погода в Алуште (Крым, Россия) (52 км)
Погода в Севастополе (город Севастополь, Россия) (57 км)
Погода в Клепинино (Крым, Россия) (58 км)
Погода в Никитском саду (Крым, Россия) (61 км)
Погода на Ай-Петри (Крым, Россия) (63 км)

Пояснения к столбцам:

Ветер - указаны скорость ветра в м/с - средняя за 10 мин, порывы в срок и между сроками (в фигурных скобках) и направление, откуда дует ветер: С - северный, СВ - северо-восточный, В - восточный, ЮВ - юго-восточный, Ю - южный, ЮЗ - юго-западный, З - западный, СЗ - северо-западный.
Видимость - горизонтальная дальность видимости в метрах или километрах. При видимости от 1 до 10 км при отсутствии осадков обычно наблюдается дымка, при ухудшении видимости до 1 км и менее - туман. В сухую погоду видимость может ухудшаться дымом, пылью или мглою.
Явления - указаны атмосферные явления, наблюдавшиеся в срок или в последний час перед сроком; фигурными скобками обозначены явления, наблюдавшиеся между сроками (за 1-3 часа до срока); квадратными скобками обозначены град или гололедные отложения с указанием их диаметра в мм.
Облачность - указаны через наклонную черту общая и нижняя облачность в баллах и высота нижней границы облаков в метрах; квадратными скобками обозначены формы облаков: Ci - перистые, Cs - перисто-слоистые, Cc - перисто-кучевые, Ac - высококучевые, As - высокослоистые, Sc - слоисто-кучевые, Ns - слоисто-дождевые, Cu - кучевые, Cb - кучево-дождевые. Подробнее классификацию облаков см. в Атласе облаков (PDF).
T - Температура воздуха - температура, измеренная на высоте 2 м над землей.
Td - Температура точки росы - температура, при понижении до которой содержащийся в воздухе водяной пар достигнет насыщения.
f - Относительная влажность воздуха - влажноcть воздуха, измеренная на высоте 2 м над землей.
Te - Эффективная температура - температура, которую ощущает одетый по сезону человек в тени. Характеристика душности погоды. При расчете учитывается влияние влажности воздуха и скорости ветра на теплоощущения человека.
Tes - Эффективная температура на солнце - температура, которую ощущает человек, с поправкой на солнечный нагрев. Характеристика знойности погоды. Зависит от высоты солнца над горизонтом, облачности и скорости ветра. Ночью, в пасмурную погоду, а также при ветре 12 м/с и более поправка равна нулю.
P - Атмосферное давление - приведенное к уровню моря атмосферное давление.
Po - Атмосферное давление - измеренное на уровне метеостанции атмосферное давление.
Tmin - Минимальная температура - минимум температуры воздуха на высоте 2 м над землей.
Tmax - Максимальная температура - максимум температуры воздуха на высоте 2 м над землей.
R - Количество осадков - Количество выпавших осадков за период времени, мм. При наведении курсора мыши на число - период времени, за который выпало указанное количество осадков.
R24 - Количество осадков - Количество выпавших осадков за 24 часа, мм.
S - Снежный покров - Высота снежного покрова, см. При наведении курсора мыши на число - состояние снежного покрова и степень покрытия местности в баллах.